Theta_e
292 292 292 292 293 293 292 292 292 292 292 290 291 290 290 290 290 290 291 291 290 291 292 292 293 293 293 293 294 295 295 296 296 296 297 297 298 300 306 306 307 308 310 313 314 315 316 317 318 320 321 322 322 323 324 324 325 325 326 327 330 335 336 338 340 341 342 342 344 343 345 344 344 345 345 345 345 345 344 343 344 345 344 343 344
292 291 291 292 292 292 291 291 291 291 290 290 290 289 289 289 290 290 290 290 290 291 292 291 292 292 293 293 294 293 293 293 294 294 295 296 297 298 304 306 306 307 309 310 312 314 315 316 317 319 320 320 320 321 322 323 324 325 325 325 326 329 333 335 337 340 341 341 341 343 343 344 343 343 344 345 345 345 344 344 344 344 344 343 343
291 291 291 291 291 290 290 291 290 290 290 289 290 290 289 289 290 290 290 290 290 290 291 290 291 292 292 292 292 292 292 292 292 293 293 294 295 296 298 303 305 305 306 307 310 312 313 315 315 316 317 319 319 320 320 321 322 323 325 325 325 326 326 327 331 335 339 340 340 339 342 343 343 343 343 343 344 344 344 344 344 344 343 344 343
292 291 290 290 290 290 290 290 289 290 290 289 289 290 290 290 291 291 291 290 290 290 291 290 290 290 291 291 291 291 291 291 291 292 293 293 293 294 294 296 301 304 305 306 308 309 311 312 313 314 316 317 318 319 320 320 320 320 322 324 325 326 326 326 324 326 332 337 339 340 339 340 342 343 343 343 343 344 344 344 344 344 343 343 343
291 291 291 289 290 290 289 290 290 290 289 289 289 289 289 288 289 290 289 289 289 289 292 290 289 289 290 290 290 290 291 291 290 290 291 291 292 292 293 294 295 300 303 305 305 307 309 310 311 313 314 315 316 317 318 318 319 320 321 322 323 325 326 325 326 327 328 334 337 339 339 339 340 341 343 343 343 342 343 343 344 344 343 343 343
290 290 290 289 289 289 289 289 289 289 289 289 288 288 287 288 288 288 290 289 288 288 288 288 288 288 288 289 289 289 289 289 290 290 290 291 291 291 292 293 293 294 296 301 305 306 306 308 308 310 311 312 313 315 316 316 317 318 319 320 320 321 324 326 326 326 327 328 331 336 338 339 339 340 340 342 342 342 343 342 343 343 343 343 342
290 289 289 288 288 288 288 288 289 288 287 288 287 287 288 288 287 287 287 287 287 288 288 287 287 287 288 288 288 288 289 289 289 289 290 290 291 291 292 292 292 293 295 294 299 302 304 305 307 309 310 311 312 313 314 315 316 317 318 319 320 320 321 322 323 326 328 328 326 330 335 337 339 340 340 339 341 342 343 342 342 343 343 343 342
289 289 288 288 287 287 287 288 288 287 288 287 288 287 287 288 287 287 285 285 287 286 286 286 286 286 287 287 287 288 288 288 288 289 289 290 290 290 291 291 292 292 296 294 295 297 303 305 306 307 308 308 309 310 312 313 314 315 316 317 318 320 320 321 321 322 323 325 328 329 333 336 338 339 339 340 340 341 342 342 342 342 343 343 342
289 288 287 287 287 286 287 288 288 287 287 287 286 288 286 288 286 288 287 285 285 285 285 285 285 286 286 286 287 287 287 287 288 288 290 289 289 289 290 291 292 297 293 293 294 295 299 304 305 305 305 306 307 309 310 312 314 315 316 317 318 319 318 320 321 321 321 321 323 324 329 333 335 338 339 338 339 340 340 341 342 342 342 342 342
288 288 287 287 286 286 287 287 287 287 287 286 285 286 286 286 285 286 286 285 284 284 284 285 286 286 286 286 286 286 286 287 287 290 288 288 288 289 290 291 291 292 292 293 293 294 295 299 304 305 306 306 306 307 309 310 312 313 314 315 315 316 316 317 319 320 320 320 321 322 324 325 332 336 338 339 339 340 341 340 340 341 342 342 342
288 288 286 286 286 286 286 287 286 286 286 285 285 286 286 285 285 284 285 285 284 284 284 285 286 286 285 285 286 286 286 287 288 287 288 288 289 291 292 291 292 292 292 293 294 294 295 296 295 296 297 303 305 305 307 309 309 310 311 312 313 314 315 315 316 317 317 319 321 320 322 325 324 328 334 338 339 339 341 341 341 341 341 342 341
288 287 286 286 285 285 285 286 286 285 285 284 284 284 284 284 284 284 284 284 285 285 285 284 284 284 285 285 286 286 286 287 287 287 288 289 289 290 290 291 291 292 293 293 294 294 294 294 294 294 295 298 303 304 305 306 305 306 308 311 313 314 315 315 316 317 317 318 318 320 320 323 325 324 329 333 337 337 339 341 341 341 341 342 341
288 287 286 287 285 285 285 285 285 285 284 284 285 285 285 284 284 284 284 283 283 284 284 284 283 282 283 283 283 285 286 287 286 287 287 288 289 289 290 290 291 291 292 293 293 293 294 294 294 294 294 295 296 301 304 304 305 305 308 310 311 313 314 314 314 315 316 318 319 319 321 320 322 325 325 332 337 337 337 338 341 341 340 341 340
287 286 286 285 285 284 284 284 285 284 284 285 285 286 284 283 284 282 284 283 282 283 284 284 281 280 279 280 281 283 285 286 286 287 287 288 288 289 289 290 289 289 292 293 291 291 291 291 291 292 292 293 294 294 295 296 298 302 305 309 310 311 312 313 313 315 314 315 314 316 320 321 321 321 325 327 334 337 337 335 339 342 342 342 340
287 287 286 286 284 284 283 284 284 284 284 283 283 283 283 283 283 282 281 282 283 284 284 284 280 281 281 279 278 278 282 284 285 284 284 284 285 285 286 286 286 287 288 288 288 289 290 290 291 291 291 292 292 293 293 294 294 298 300 301 303 306 309 311 312 313 314 313 313 316 317 317 321 322 322 325 328 335 338 337 336 338 342 342 341
286 286 286 285 284 284 283 283 283 284 283 282 282 282 282 282 283 283 282 280 280 281 284 283 282 280 276 278 277 277 276 280 279 281 283 284 284 284 285 286 287 287 287 287 287 288 289 289 289 290 291 291 291 291 291 291 293 297 298 298 301 303 306 309 310 312 312 313 314 317 318 318 318 319 322 323 327 329 335 337 336 335 337 342 340
286 286 286 285 285 284 283 283 283 283 283 282 281 281 282 282 282 282 281 280 279 280 282 283 282 283 280 277 275 275 275 277 278 279 281 282 283 284 284 284 284 285 285 286 287 287 288 288 288 289 289 290 290 290 290 291 291 293 293 296 299 300 301 307 309 311 313 314 315 315 315 316 316 320 320 320 322 327 331 334 337 336 336 335 341
285 285 285 285 284 284 283 283 282 283 283 282 282 282 281 281 282 282 281 282 281 280 280 282 284 284 284 281 280 276 275 277 276 275 280 282 282 282 282 283 284 285 285 285 285 286 287 287 288 288 288 289 289 289 290 290 292 291 292 292 299 302 302 303 308 310 310 312 314 316 316 316 315 315 319 321 321 322 327 331 334 337 336 336 335
285 285 285 284 284 284 283 283 282 282 283 281 281 281 281 281 282 282 282 283 282 280 279 280 281 282 283 283 283 282 281 278 275 277 275 279 280 280 281 282 283 283 284 284 285 285 286 286 286 287 287 288 288 289 289 290 292 293 295 297 299 301 301 301 302 305 309 312 313 314 315 314 313 311 318 312 321 319 323 329 332 335 337 338 336
285 284 284 284 284 283 283 282 282 282 282 281 281 281 282 283 282 282 282 282 281 280 279 280 279 279 282 281 281 281 280 280 280 277 276 274 276 280 281 281 281 282 283 283 284 284 284 285 285 286 286 287 288 288 289 289 290 290 291 295 297 300 301 301 302 302 304 307 311 313 314 315 315 314 317 318 323 323 322 329 331 332 335 337 335
284 284 284 284 284 282 282 282 281 281 282 282 281 281 280 280 280 280 280 281 281 281 280 279 279 279 279 278 279 278 278 279 278 278 276 275 275 276 277 280 281 282 282 282 283 284 284 284 285 286 286 286 287 288 288 288 288 288 291 294 296 299 300 300 300 301 301 303 306 309 311 313 315 316 318 317 321 325 326 329 330 331 334 336 336
284 284 283 283 283 282 282 281 281 281 282 280 280 280 280 280 280 280 281 280 281 281 280 279 279 279 279 278 277 276 276 276 276 276 276 277 274 275 277 276 276 279 281 281 282 282 283 283 283 284 284 285 286 286 287 287 287 289 291 294 295 296 298 298 300 301 301 302 304 304 307 309 314 315 316 316 314 322 326 328 330 331 332 335 337
283 283 283 282 282 282 281 281 281 281 281 280 280 280 280 280 280 281 281 280 280 280 280 280 280 279 278 278 277 277 276 275 275 276 275 274 275 275 276 277 277 276 279 281 281 281 282 282 282 282 283 284 284 285 285 286 288 289 292 293 293 295 296 299 299 300 301 302 303 303 305 306 308 311 313 317 315 315 321 326 328 329 330 333 336
282 282 282 282 282 281 281 280 280 280 279 280 280 280 280 280 279 279 279 279 279 279 279 278 278 278 278 278 277 278 277 277 277 277 276 276 276 275 275 276 276 277 279 280 280 280 281 281 282 282 283 283 284 284 285 285 285 289 288 289 291 293 296 297 298 298 300 301 301 302 303 305 305 307 309 312 316 315 319 322 325 327 330 332 335
281 280 281 281 281 280 280 280 279 280 280 279 279 280 279 279 278 278 278 278 278 278 277 277 277 277 276 277 277 277 277 278 278 277 277 277 276 274 275 276 274 275 277 278 277 279 280 280 281 281 282 282 283 283 283 284 284 286 288 288 290 292 293 295 296 297 298 299 300 300 302 303 305 306 308 309 311 315 315 318 319 323 326 331 334
280 280 280 281 280 280 280 279 279 279 280 279 278 278 278 278 278 278 278 278 278 277 277 277 277 277 277 277 277 277 277 278 277 277 276 276 275 274 274 275 275 274 276 276 277 277 278 280 280 281 281 281 281 282 282 282 283 285 286 286 287 290 292 294 298 299 298 299 299 301 301 302 304 305 306 310 313 314 317 319 318 320 323 326 329
281 280 281 280 280 280 279 279 279 278 278 278 280 278 278 278 278 277 278 277 277 277 277 276 277 277 276 276 277 277 277 277 277 277 277 277 276 275 274 272 273 274 274 276 276 276 276 278 280 279 280 280 280 280 281 281 283 286 287 285 285 289 291 294 296 296 296 296 299 300 301 303 304 305 306 305 308 308 312 314 317 317 321 323 324
280 280 280 280 279 278 278 278 278 277 278 277 277 277 276 276 276 276 276 279 277 276 276 276 276 276 276 276 276 276 277 277 277 277 277 277 277 276 276 274 272 270 273 273 274 274 277 276 278 279 278 279 280 280 282 282 281 284 284 283 284 286 289 292 295 296 297 297 298 298 301 302 303 305 305 305 306 306 306 306 309 309 311 313 314
280 279 279 278 278 278 277 277 277 277 277 277 276 276 276 276 276 276 276 276 276 276 276 276 276 276 276 276 276 276 276 277 277 277 277 277 277 277 276 275 274 272 270 270 272 273 275 277 274 277 278 278 278 279 279 279 281 282 282 282 283 284 286 290 291 293 295 297 297 298 299 300 302 302 304 305 306 306 306 306 306 309 308 310 311
279 279 278 277 277 278 277 276 276 276 276 276 276 276 276 276 276 276 276 276 276 276 276 276 275 275 276 276 275 275 276 276 276 276 276 276 276 276 276 276 275 273 272 271 271 274 274 276 276 275 277 277 278 278 279 278 282 281 280 280 280 281 285 286 288 290 291 292 293 296 298 300 300 301 302 304 305 305 305 305 305 308 307 309 311
278 277 277 276 276 276 276 276 276 276 276 276 276 275 275 275 275 275 275 275 275 275 275 275 275 275 275 274 275 275 275 275 275 275 275 276 275 275 275 276 275 274 273 272 270 273 276 273 275 276 276 276 277 277 277 278 279 280 279 279 280 282 284 283 286 288 289 291 292 292 297 298 299 300 302 302 303 305 305 306 306 307 308 308 311
277 277 276 276 276 275 276 276 276 275 275 275 275 275 275 275 274 275 275 274 274 274 274 274 275 275 274 274 274 274 275 274 274 274 274 275 275 275 275 275 274 274 274 273 271 271 275 275 275 275 276 275 276 275 276 277 279 281 278 279 279 282 280 280 283 286 288 290 292 293 293 298 299 300 300 301 302 303 304 305 306 308 310 309 310
276 276 276 276 276 276 275 275 275 275 274 274 274 274 274 274 274 274 274 274 273 273 273 273 274 274 273 273 273 274 274 273 273 274 274 274 274 274 274 274 273 274 273 272 271 271 273 276 275 274 275 276 274 276 275 276 276 277 279 278 279 279 280 281 282 285 287 290 291 292 294 296 298 299 300 301 301 302 303 304 305 305 306 309 311
276 276 275 275 275 275 275 274 274 274 274 274 273 274 273 273 273 274 273 273 273 272 272 272 272 273 273 272 273 273 273 273 273 273 273 273 273 273 273 273 273 273 274 273 271 271 270 273 273 275 275 276 274 276 275 275 276 277 277 277 279 279 280 281 282 283 288 290 291 293 294 297 298 299 299 300 301 302 303 304 304 304 304 306 309
276 275 275 275 275 274 274 274 273 273 273 273 273 273 273 273 272 272 273 272 272 272 272 272 272 272 272 272 272 272 273 272 272 273 273 273 273 272 272 273 272 273 274 274 272 270 271 271 273 273 274 274 274 275 276 277 277 277 276 277 277 279 280 281 282 283 287 289 292 294 295 296 298 299 299 299 300 302 302 303 304 305 305 306 307
275 275 275 274 274 274 273 273 272 272 273 273 273 273 273 272 272 272 272 272 272 272 271 271 271 271 271 271 271 272 272 272 272 272 272 272 272 272 272 272 272 272 273 273 273 272 271 270 271 272 273 273 274 276 276 277 276 276 277 277 278 278 279 281 282 283 286 290 292 294 295 296 297 298 298 299 299 300 302 302 303 304 304 305 305
274 274 274 274 273 273 273 272 272 272 272 272 272 272 272 272 272 272 271 271 271 271 272 272 273 272 272 271 272 272 272 271 271 271 272 272 272 272 272 272 272 273 273 273 273 273 271 270 271 273 274 274 275 275 276 275 275 276 277 277 277 278 280 281 282 284 286 288 290 291 293 295 296 297 298 298 299 300 301 300 302 304 304 304 304
273 273 273 273 273 272 272 272 272 272 272 272 271 271 272 272 272 271 271 271 271 271 272 272 272 272 272 271 271 272 271 271 271 272 272 272 272 272 272 272 272 272 272 272 273 272 272 271 271 271 273 273 273 274 275 276 275 274 275 276 277 278 279 280 282 284 286 288 288 291 293 294 295 297 298 299 300 301 300 301 303 303 302 302 303
273 272 272 272 272 272 272 272 272 272 271 271 271 271 271 271 271 271 271 271 271 271 271 271 272 272 272 272 272 273 272 272 272 272 272 273 273 272 273 272 272 272 272 272 272 272 272 271 271 272 272 274 274 273 275 276 276 275 274 274 274 276 277 278 280 284 286 288 291 293 293 293 294 295 296 298 300 300 301 301 302 303 302 301 302
272 272 272 271 271 272 272 272 272 272 271 271 271 271 271 271 271 271 271 271 270 270 271 272 272 273 273 273 273 273 273 273 273 273 273 272 273 272 273 273 272 272 272 272 272 272 271 271 271 271 272 273 274 275 276 275 274 274 275 275 273 275 276 279 281 283 286 289 289 291 293 294 295 296 298 298 298 300 301 301 301 301 300 301 301
272 272 272 272 271 271 271 271 271 272 271 271 271 271 271 271 271 271 271 271 271 272 273 273 274 274 274 274 274 274 275 276 277 278 277 278 275 273 273 273 272 272 272 272 272 271 271 271 271 272 272 272 273 273 273 273 273 273 275 275 275 275 276 277 278 281 282 284 287 289 290 291 292 293 294 294 296 297 298 299 300 299 299 300 301
272 272 271 271 270 270 270 271 271 271 271 272 273 275 275 272 271 271 272 273 274 274 273 273 274 274 275 275 275 277 278 278 279 279 280 280 280 278 277 276 275 274 273 272 272 272 271 271 271 271 271 271 272 273 273 274 275 275 275 275 274 276 277 277 278 280 283 284 284 286 290 292 293 293 294 294 296 297 299 300 301 302 301 301 302
271 271 270 270 270 270 270 270 270 271 271 272 275 276 277 277 275 274 274 274 274 274 274 274 274 274 275 276 275 276 277 277 276 278 279 279 279 280 280 280 279 276 275 274 274 274 272 271 272 272 272 272 273 274 273 274 275 275 275 275 275 275 275 274 274 279 284 284 285 287 288 291 289 288 290 291 292 293 295 299 302 301 301 303 303
269 269 269 269 269 270 270 270 270 271 271 273 275 276 277 277 277 275 275 274 274 274 275 274 274 274 274 274 275 275 275 275 275 275 277 278 279 279 279 280 280 280 280 277 275 274 274 273 273 273 273 273 273 274 274 275 275 275 276 276 276 275 275 275 276 277 282 287 286 286 286 288 288 287 287 289 291 293 294 297 301 302 303 303 303
269 268 269 269 269 270 270 270 270 270 270 273 275 276 276 277 277 277 275 275 275 275 275 274 274 274 274 274 274 274 274 277 276 275 275 275 277 278 279 279 279 279 280 280 280 277 276 274 274 274 275 275 274 275 276 276 277 275 276 276 276 277 277 277 277 279 282 285 284 283 284 286 286 285 285 288 290 292 293 296 298 302 304 304 304
268 268 269 269 269 270 270 270 269 270 270 272 274 275 276 277 277 277 275 275 275 274 274 274 273 273 273 273 273 273 274 274 275 275 275 275 275 275 275 275 275 276 279 279 279 279 279 276 275 274 275 276 275 276 278 279 278 277 276 276 277 277 277 277 279 280 283 285 283 282 282 284 285 285 284 287 290 292 293 296 298 301 304 305 304
268 268 268 268 269 269 269 269 268 268 268 272 273 275 276 276 277 277 275 274 274 273 274 274 273 273 274 274 274 274 274 274 275 276 275 275 275 275 275 275 275 276 276 276 276 276 276 276 276 276 276 277 277 277 278 279 278 278 278 278 278 278 279 280 281 281 281 283 283 283 280 283 285 284 285 287 290 291 293 296 298 299 303 305 305
268 268 269 269 268 268 268 268 267 267 268 271 273 274 275 276 277 275 274 273 273 273 273 273 274 274 274 274 274 274 274 274 277 279 278 276 275 274 274 275 275 275 276 278 280 280 279 278 278 278 278 278 281 279 279 279 279 279 279 279 279 279 278 277 276 278 279 283 285 284 282 283 285 284 285 288 290 290 292 294 297 300 302 305 305
268 268 268 268 268 268 267 267 267 267 267 269 272 274 275 276 276 274 274 273 273 272 272 273 273 274 274 274 274 274 274 274 276 279 279 278 275 274 274 274 274 274 274 276 279 281 281 281 282 283 283 283 284 284 284 285 283 281 279 277 276 278 276 275 276 278 279 283 285 285 284 283 285 286 285 287 288 288 290 292 295 298 302 305 305
267 267 267 267 267 267 267 267 267 266 266 268 272 274 275 275 275 273 273 272 272 272 272 273 273 274 274 276 276 274 274 273 277 279 279 277 274 274 273 273 273 273 274 276 276 277 280 281 282 282 282 283 283 284 285 284 285 284 279 277 279 279 277 277 276 278 280 283 285 286 284 283 285 285 284 286 287 288 290 292 295 298 301 303 305
267 267 267 266 266 267 267 267 268 268 266 268 272 273 274 275 275 273 272 272 271 271 272 272 273 273 274 275 276 275 275 275 278 278 279 277 274 274 274 274 273 273 274 275 275 275 276 276 277 277 278 280 280 279 280 283 284 284 282 280 281 279 277 278 279 279 279 281 285 286 282 283 283 284 285 286 285 288 291 294 296 300 304 305 306
Wind_Speed
3 3 3 3 2 2 3 3 3 3 5 4 5 5 6 6 6 5 5 6 6 7 6 6 5 6 6 6 5 5 5 6 6 6 5 6 6 7 11 15 18 19 20 21 21 22 22 21 21 20 20 19 19 18 18 18 18 18 18 19 19 20 21 19 17 18 20 17 17 18 18 21 20 19 19 19 17 19 23 20 23 24 26 27 24
3 2 3 2 1 3 3 3 3 3 4 5 5 6 6 6 6 5 6 6 6 7 7 6 6 6 6 7 7 6 6 6 6 6 6 6 6 7 11 12 17 19 20 21 21 21 21 21 21 21 20 20 20 19 19 18 19 19 19 19 20 20 20 21 19 17 18 19 19 17 18 20 20 20 19 19 18 18 21 21 21 21 21 22 22
3 2 3 2 3 3 2 2 3 4 5 5 5 5 6 6 6 6 6 6 6 6 6 7 6 6 6 6 7 7 7 7 7 7 7 6 5 6 8 13 14 18 20 21 21 22 22 22 22 22 21 21 20 20 20 19 18 19 20 20 20 21 22 22 21 20 18 18 19 20 19 18 19 20 21 21 20 20 20 21 20 19 21 22 23
3 2 1 2 3 2 1 3 3 3 5 5 6 5 5 5 5 4 5 5 6 6 6 6 6 6 6 6 6 7 7 7 7 7 6 7 7 7 7 8 12 15 17 20 21 22 22 22 21 21 21 21 21 21 20 20 19 19 19 20 21 21 21 22 23 23 22 20 19 20 21 23 20 20 20 21 21 21 21 21 21 20 23 24 25
4 2 1 2 3 2 2 2 2 4 5 4 4 3 4 6 6 4 5 5 6 6 5 6 7 7 6 6 6 6 7 6 7 7 7 6 7 7 7 7 8 11 14 14 18 21 21 21 21 21 21 21 21 21 21 20 20 20 20 20 20 22 22 23 23 23 22 22 21 20 20 22 22 22 21 22 23 23 21 21 21 23 25 25 25
3 3 0 2 1 1 2 1 3 4 4 3 3 4 5 5 4 5 5 5 6 6 6 7 6 6 6 6 6 6 6 7 7 7 7 7 7 7 7 7 6 6 7 12 13 16 19 19 20 20 20 21 21 21 21 21 21 21 21 22 22 21 22 23 23 24 24 24 23 22 20 20 24 24 24 23 23 23 23 22 22 22 23 25 23
2 2 2 1 1 2 2 2 4 3 2 2 3 3 3 4 4 5 5 4 5 5 6 7 7 7 6 6 7 7 7 8 8 8 8 8 7 7 7 7 6 6 6 6 8 11 15 19 21 20 20 20 20 20 21 22 22 22 23 23 23 24 23 23 23 24 24 24 25 23 22 21 20 22 26 25 24 23 23 23 23 24 23 24 26
3 2 2 2 1 1 1 3 3 2 1 1 1 3 3 3 3 4 5 5 5 6 6 6 7 8 7 7 7 7 8 8 8 9 8 7 7 7 7 7 7 7 7 7 7 8 13 16 17 18 19 19 20 21 21 22 22 23 23 24 24 23 24 24 24 24 25 25 24 23 23 22 21 21 24 24 24 25 24 25 24 24 24 25 28
3 3 2 2 1 2 1 2 2 0 0 1 1 2 3 3 3 2 2 5 6 7 6 6 7 8 8 8 8 8 9 8 8 8 8 8 8 8 7 7 7 8 7 6 7 6 8 12 14 18 18 18 19 20 20 21 21 21 22 22 23 24 24 24 25 25 24 25 26 26 25 24 23 21 21 26 26 25 25 24 24 24 24 25 26
4 4 3 2 2 1 1 1 1 0 0 1 1 2 3 3 3 2 3 4 5 6 8 8 7 7 8 8 10 9 9 9 9 9 8 8 7 8 7 7 6 7 7 7 7 7 7 9 13 14 14 14 17 19 21 21 22 22 22 22 23 23 24 25 25 25 26 26 25 26 28 27 25 24 22 23 26 25 25 25 26 25 25 24 27
4 4 3 3 3 2 2 1 1 0 0 1 1 2 2 3 4 6 4 3 5 6 8 8 8 8 9 11 10 11 9 9 10 8 7 7 7 8 6 7 7 7 7 7 6 6 7 6 6 5 6 11 15 20 21 22 22 22 22 23 23 23 24 25 26 26 26 26 28 27 27 29 29 28 26 22 24 26 25 25 26 27 26 24 25
5 4 4 3 3 3 2 1 0 0 0 1 1 2 3 4 4 4 7 6 4 6 6 6 7 8 11 10 9 11 11 11 10 9 6 6 7 6 6 7 7 7 7 7 6 6 6 5 5 6 6 9 14 17 19 21 20 21 23 24 24 24 24 24 25 25 26 27 27 29 28 27 29 29 29 27 26 28 28 27 27 28 28 25 25
5 5 5 4 3 2 2 1 2 1 1 1 1 1 2 2 3 3 5 7 6 4 5 5 8 9 5 9 10 10 13 12 12 9 7 6 5 6 6 6 6 6 6 6 5 5 5 6 7 7 8 7 8 11 14 17 15 19 23 24 25 26 26 26 25 25 25 25 27 27 29 29 28 30 30 29 25 26 29 29 28 26 27 26 26
6 5 4 5 4 4 3 3 1 0 1 1 1 1 2 3 3 3 2 4 5 4 7 6 4 5 12 12 8 7 8 10 10 6 6 4 5 6 6 6 8 9 7 6 5 6 8 9 9 9 9 9 9 8 8 9 10 16 23 26 28 28 28 27 26 26 25 26 28 29 28 29 30 29 31 32 30 25 26 33 30 27 27 26 25
6 6 5 4 4 3 3 2 1 1 0 1 1 1 1 2 2 3 5 3 4 5 6 2 5 6 8 9 7 10 2 5 1 3 10 11 11 10 11 10 11 9 6 6 7 8 7 7 8 9 10 10 8 8 9 11 14 18 24 26 27 28 29 29 29 29 29 30 31 30 30 29 29 30 30 32 33 31 26 29 32 31 28 25 26
6 5 4 4 4 4 3 2 2 1 1 1 1 2 1 3 3 3 2 6 3 3 3 4 3 6 6 1 9 4 11 2 7 9 9 10 8 8 6 5 6 6 7 9 9 8 8 8 10 10 10 10 10 10 11 12 16 19 20 20 20 25 27 28 29 30 30 30 30 29 28 29 29 29 30 30 32 34 32 28 30 34 32 31 28
6 6 6 5 4 4 3 3 2 2 1 1 1 2 3 3 2 2 3 4 6 3 3 3 5 4 3 6 5 2 2 11 16 11 7 0 5 8 9 11 10 8 7 7 6 8 8 9 9 10 10 10 10 11 11 13 12 12 14 17 18 23 24 27 28 29 29 29 30 29 29 30 31 30 31 32 32 34 36 33 29 32 33 33 24
6 6 6 5 5 5 4 3 3 2 3 3 3 3 3 3 3 3 4 4 5 6 6 3 5 5 6 6 6 6 11 8 3 12 6 8 13 7 7 5 5 7 6 8 9 9 8 9 10 10 10 10 11 12 12 12 12 12 12 13 22 26 27 29 31 32 32 32 31 29 28 28 31 33 33 33 34 34 38 36 33 31 33 32 31
6 6 6 5 5 4 4 4 3 4 3 3 3 3 3 3 3 3 3 3 3 7 7 6 4 5 6 7 7 6 5 6 7 10 19 12 8 4 6 4 7 7 9 7 7 9 9 9 11 10 10 10 10 11 11 12 15 16 20 21 25 28 29 30 30 31 31 32 33 34 35 36 37 37 36 36 35 36 35 37 34 33 32 30 30
7 6 6 6 5 5 5 4 4 4 3 5 4 4 4 3 3 3 3 4 5 7 8 5 6 4 3 5 4 4 4 5 5 6 11 16 28 8 8 8 6 5 6 11 10 9 10 9 9 10 10 11 10 11 12 13 12 13 13 21 28 30 30 29 29 29 31 32 33 34 35 36 36 35 35 36 35 35 37 37 37 35 33 31 33
7 7 6 6 6 5 5 5 5 4 4 5 4 4 4 4 4 4 4 5 5 6 6 6 5 7 5 4 4 4 4 4 4 4 6 11 20 19 22 11 7 9 11 8 6 7 10 10 9 11 11 11 11 11 11 12 13 14 15 23 29 31 31 30 30 31 31 33 35 36 36 35 34 34 33 33 36 35 36 36 37 36 35 32 34
7 6 6 6 6 5 5 5 5 4 3 4 4 4 4 4 4 4 5 6 5 6 7 7 6 6 6 5 4 3 3 3 4 5 7 8 13 20 20 21 25 15 5 6 13 8 8 11 12 12 12 11 11 12 12 13 12 12 14 24 28 31 32 33 34 34 34 34 35 35 36 37 36 36 36 36 37 37 36 36 37 37 37 35 30
7 7 7 6 6 5 5 5 4 4 4 4 5 5 5 5 5 6 6 7 6 6 8 7 6 6 6 6 6 6 6 6 6 5 5 7 9 15 16 16 18 24 23 10 11 11 10 12 12 12 11 11 11 10 11 12 15 16 25 27 31 31 34 36 36 36 35 35 36 35 35 37 37 37 37 36 37 37 38 36 36 36 36 38 33
7 7 7 7 6 6 5 5 5 4 5 5 5 5 5 5 5 4 4 5 5 6 7 8 7 7 6 6 6 6 6 7 6 6 7 9 9 14 15 15 17 16 17 17 19 15 10 9 10 10 10 10 10 10 11 13 14 25 23 27 33 34 36 37 37 36 37 37 36 36 38 38 39 38 37 37 36 37 37 38 35 36 35 34 36
8 8 8 9 7 7 6 6 6 6 6 5 5 5 5 4 3 4 4 6 6 6 7 8 7 7 7 5 6 5 7 6 6 7 7 8 9 12 14 10 16 18 19 15 14 12 14 10 10 9 10 9 9 9 10 12 13 17 25 22 32 32 34 35 35 36 36 37 36 37 39 41 41 40 40 40 39 39 38 40 37 36 38 32 35
8 8 8 8 7 7 6 6 6 5 5 5 4 3 3 3 4 5 6 6 5 7 8 7 7 8 6 7 6 7 8 6 8 7 8 8 10 11 13 12 12 17 15 16 18 15 14 4 6 7 7 8 10 10 11 13 15 22 28 23 25 32 33 35 36 36 38 37 39 38 37 37 40 41 43 41 40 39 37 36 37 37 36 37 34
8 7 8 8 7 6 6 6 4 4 4 4 4 4 4 3 4 5 5 5 6 7 7 7 8 8 7 7 7 7 7 7 7 9 8 9 9 10 9 14 15 14 16 13 17 19 19 14 11 8 9 10 9 10 11 12 17 25 25 20 18 29 33 35 36 37 38 42 42 41 38 35 36 40 40 41 40 41 42 37 38 37 36 36 36
8 8 7 8 7 6 5 4 4 4 4 4 4 4 3 3 4 4 6 5 6 7 7 7 8 8 8 7 7 8 7 8 8 9 9 8 9 9 10 11 13 18 15 17 16 19 16 15 14 9 4 9 8 6 12 17 15 24 24 18 17 18 27 32 33 35 37 36 38 41 38 36 35 34 34 35 35 34 33 35 35 36 33 31 29
7 7 7 6 6 6 5 5 5 5 5 5 4 4 3 4 5 5 7 5 6 7 7 7 7 7 6 7 8 8 8 8 8 8 8 9 9 9 9 11 11 14 15 15 22 19 20 10 12 14 2 6 12 10 10 12 16 19 16 17 18 18 23 32 35 35 35 38 39 41 40 36 35 37 34 31 30 33 35 35 36 36 35 32 32
7 6 7 7 6 6 6 5 4 4 4 4 4 4 4 5 5 6 6 5 7 7 7 7 8 6 7 7 7 9 8 8 8 8 8 9 10 10 10 10 10 13 13 14 19 17 19 19 15 12 11 7 8 13 10 11 19 23 18 20 20 21 31 35 38 40 41 43 39 39 38 38 38 37 37 33 34 35 39 37 37 37 36 35 35
8 8 7 7 6 5 5 4 5 5 4 4 4 4 4 5 5 6 6 5 6 7 7 6 6 6 7 8 8 9 8 9 9 9 9 10 11 11 12 11 12 13 13 13 17 22 13 18 21 14 12 15 11 13 16 13 16 21 20 19 20 26 35 31 38 38 37 38 39 39 39 35 38 40 36 34 32 35 38 37 36 37 38 36 36
8 8 7 7 6 6 5 6 6 5 5 4 4 4 4 5 5 6 5 5 7 8 7 6 6 6 7 9 9 9 9 8 9 10 10 10 10 11 10 9 10 10 11 13 18 25 16 17 20 23 14 16 15 14 18 16 14 23 18 18 21 27 23 20 30 35 35 36 36 37 40 38 34 35 39 35 35 34 30 30 31 33 35 36 36
8 8 8 7 6 7 6 6 6 5 4 4 3 3 4 5 5 6 6 6 8 8 7 8 7 7 8 9 10 10 9 11 10 10 10 10 9 9 9 9 12 11 12 14 21 20 22 15 17 19 16 14 17 13 17 18 16 15 17 17 20 19 19 18 19 27 33 34 35 36 37 37 35 34 34 31 30 35 32 33 35 34 35 36 34
9 8 8 6 6 6 5 5 5 4 3 3 3 3 5 5 6 5 6 7 8 8 6 8 7 7 7 9 10 11 9 11 12 12 11 12 12 11 11 10 11 12 13 13 20 15 26 14 20 16 18 13 18 14 15 19 17 16 18 17 16 17 18 18 18 19 30 32 34 35 36 35 34 34 34 33 34 34 34 34 32 32 32 33 32
8 8 8 7 7 6 5 4 4 3 3 4 4 4 6 6 7 6 6 7 7 8 8 9 8 7 9 9 11 10 9 12 12 12 11 11 10 10 12 11 13 14 16 14 18 19 22 22 17 19 16 15 17 17 16 16 17 17 19 19 17 17 15 17 18 16 27 33 35 35 36 36 33 31 32 32 31 32 29 30 31 30 29 30 31
9 7 6 6 5 5 4 4 4 3 4 4 5 5 7 7 7 7 7 7 8 8 9 9 9 8 9 10 11 10 10 12 12 11 11 11 11 11 13 13 14 16 16 16 18 19 16 23 19 21 17 17 17 14 15 15 17 18 16 18 17 17 18 17 18 16 22 33 36 37 36 32 29 31 31 29 30 30 29 31 30 29 29 29 27
8 7 6 5 5 5 6 5 5 5 5 6 6 6 6 6 7 7 8 8 8 9 9 9 9 10 10 11 11 10 11 13 14 13 12 13 12 13 14 12 15 14 15 15 18 17 21 20 23 17 16 18 16 16 15 15 15 16 16 17 16 17 17 17 16 18 26 36 37 39 36 33 32 32 32 32 31 30 32 33 33 30 30 30 28
8 7 8 7 7 6 5 5 5 5 5 5 6 6 7 6 7 7 8 8 9 9 9 9 9 9 10 11 11 12 12 14 14 14 14 15 13 13 17 17 14 17 18 16 18 15 22 21 18 21 16 17 18 15 14 15 15 16 16 16 15 15 19 19 17 14 13 12 12 13 19 23 24 29 30 29 29 30 35 34 31 30 30 29 28
10 9 7 7 6 6 6 6 6 6 5 5 6 6 7 7 8 8 8 8 8 8 8 9 9 10 11 12 12 13 14 14 15 16 14 17 17 17 15 19 19 14 20 15 18 19 19 20 21 19 19 18 17 21 14 14 17 15 16 18 18 15 14 17 18 15 13 14 17 23 22 21 22 22 25 28 30 31 32 32 32 32 31 30 29
9 9 9 8 6 6 6 6 6 5 5 5 6 7 7 7 8 8 7 7 7 8 9 10 10 12 13 14 16 15 16 15 15 16 16 16 16 18 16 13 19 18 16 19 17 18 16 20 17 22 14 21 16 16 17 14 18 15 13 15 19 17 13 13 14 16 15 13 13 12 14 18 19 23 26 25 31 33 33 31 32 33 33 31 30
7 8 8 7 7 6 5 5 4 4 5 7 6 7 7 8 7 6 6 7 8 10 11 12 13 14 14 15 14 16 17 23 27 25 24 23 17 14 16 15 16 17 17 16 17 15 16 16 17 16 16 16 18 14 16 16 14 18 13 14 17 17 14 18 18 15 15 18 15 14 14 12 12 12 12 13 15 21 25 31 27 33 34 32 31
8 7 7 6 5 6 5 6 7 7 7 6 9 16 13 7 6 6 7 8 10 11 12 13 13 13 14 13 13 21 24 26 27 28 29 29 29 23 19 14 13 14 15 16 16 16 16 18 18 15 14 18 13 17 16 18 15 15 16 16 18 18 15 17 18 15 12 14 16 18 16 13 13 12 10 12 11 14 13 15 16 19 23 29 28
9 8 6 6 5 5 7 7 7 7 7 6 13 13 14 16 9 6 8 10 11 11 12 12 12 13 13 13 12 16 20 21 20 28 28 29 29 31 33 32 27 22 18 18 17 15 15 16 17 18 16 20 17 17 17 17 16 17 16 16 17 17 15 17 20 19 12 11 18 18 16 8 5 8 10 11 12 12 13 14 22 25 28 27 26
7 7 6 7 7 7 7 8 8 7 6 9 13 13 14 14 13 8 9 9 9 10 11 12 12 13 14 12 12 12 12 15 17 17 22 29 32 32 33 33 32 33 31 23 20 19 18 17 18 17 12 17 17 15 15 14 15 14 16 15 17 17 17 16 16 15 16 8 9 8 10 6 5 8 11 12 12 12 14 19 26 27 27 27 26
7 7 7 8 8 7 7 7 7 6 6 9 11 13 12 13 13 12 8 8 9 10 11 12 13 13 12 13 14 12 13 24 20 17 17 19 25 32 34 34 34 35 33 35 35 26 20 20 21 22 16 14 15 14 14 16 15 17 14 14 13 15 14 17 17 15 16 12 16 16 14 9 7 10 13 14 13 12 13 18 25 27 26 26 26
7 7 7 7 7 7 7 6 6 6 6 7 11 12 12 12 12 12 8 9 9 11 12 12 12 12 13 14 14 16 17 16 15 17 17 18 18 16 16 16 16 22 30 34 35 37 32 24 22 24 23 17 20 19 15 13 15 14 13 14 15 15 18 19 17 15 16 12 16 17 17 12 8 11 14 14 12 13 12 17 24 25 24 25 26
8 7 7 7 6 5 5 4 4 4 4 9 11 12 12 12 12 12 7 8 8 10 11 12 13 14 14 15 18 18 15 15 14 19 18 18 17 17 17 18 15 14 15 15 18 19 18 19 22 24 24 21 21 19 16 14 16 17 15 17 17 14 14 13 14 17 15 17 19 17 18 11 7 11 13 12 11 13 12 16 22 26 25 25 26
5 5 5 5 6 5 4 3 4 6 6 10 11 11 11 10 13 6 6 8 9 10 11 12 13 12 13 15 15 15 16 17 21 30 27 21 19 19 19 18 17 17 15 19 27 29 25 21 20 20 19 22 26 24 21 17 15 15 15 14 13 14 14 16 17 15 15 14 14 13 12 11 8 11 13 10 10 13 13 12 18 24 25 25 27
7 7 6 5 5 5 5 5 6 6 4 9 12 11 10 11 9 5 6 5 8 10 11 12 13 13 13 14 14 15 17 17 23 30 30 28 20 19 19 20 19 19 20 19 27 33 34 36 38 38 40 41 40 40 39 41 30 22 14 12 15 12 15 14 16 14 15 12 10 11 12 13 7 8 11 11 12 13 13 14 14 18 23 24 26
7 6 6 5 4 4 5 5 5 5 5 9 12 10 10 11 10 6 5 6 7 9 11 11 11 13 15 23 21 18 19 18 27 31 31 25 18 19 20 20 21 19 18 15 14 17 29 35 38 38 38 36 37 38 37 35 34 28 16 18 16 12 15 15 15 14 13 12 11 6 8 11 8 10 12 12 13 10 11 13 14 15 20 21 28
6 6 5 5 4 4 4 4 8 7 6 8 11 10 11 11 9 5 5 6 8 8 9 10 12 13 14 16 23 22 21 23 31 30 33 27 20 19 19 19 18 20 18 18 18 19 18 17 18 20 22 26 24 21 22 32 32 28 20 18 15 15 16 17 15 13 14 13 9 6 10 10 8 10 8 8 11 11 8 10 10 11 10 10 15
Wind_Direction
64 67 68 64 53 47 28 30 11 5 33 10 17 7 354 345 335 341 339 336 333 325 322 323 320 320 320 309 304 305 307 308 305 304 302 299 298 294 298 300 302 304 302 302 302 303 302 302 301 300 300 300 300 298 296 295 292 289 288 285 285 288 289 292 290 284 282 271 257 252 244 242 235 230 228 230 228 222 221 216 218 220 220 216 203
77 60 83 66 56 51 37 25 15 16 35 20 11 13 348 336 331 334 335 332 330 317 319 319 321 320 317 317 316 315 311 304 299 298 298 298 296 295 296 295 296 299 300 299 299 299 299 299 299 298 297 298 299 299 298 296 296 294 289 286 285 285 287 287 287 284 281 281 271 256 248 248 243 239 233 227 224 222 222 219 222 220 216 210 203
90 65 73 70 63 61 33 24 27 13 44 25 10 358 337 319 313 315 323 323 313 305 314 312 313 317 312 312 310 309 308 306 307 305 300 292 289 293 294 295 295 295 297 298 298 298 298 298 298 298 298 297 297 298 299 297 296 295 294 290 286 284 283 283 284 284 280 278 279 273 262 245 240 238 239 234 226 223 221 222 220 207 211 207 200
104 92 98 80 75 66 30 40 17 28 40 24 353 330 311 300 302 315 316 307 303 309 301 309 312 308 307 304 302 305 298 294 289 290 293 299 299 296 294 294 294 292 293 296 297 298 298 298 297 297 298 298 298 298 298 298 298 297 294 294 292 287 283 282 279 279 281 279 275 273 269 261 243 236 236 236 233 227 224 221 219 211 212 212 206
108 115 116 106 89 75 38 45 27 55 38 4 332 324 336 327 318 321 322 324 320 309 316 319 309 300 299 295 296 292 289 292 293 293 291 288 287 285 287 289 288 289 289 290 294 297 299 299 299 299 299 299 300 300 299 298 296 296 296 293 292 291 289 284 282 279 277 276 274 269 267 266 256 242 233 233 236 234 228 224 221 219 216 213 210
112 117 80 87 113 93 86 31 52 57 31 347 344 349 324 307 306 333 321 321 314 316 319 308 292 292 293 290 292 291 297 295 291 287 288 287 286 286 284 279 280 284 290 291 291 291 296 300 302 301 301 302 302 301 300 299 298 296 295 295 294 291 289 288 285 281 278 276 275 274 267 261 264 255 246 236 232 232 231 228 224 221 220 215 210
118 128 121 130 100 99 68 81 66 57 31 346 344 315 301 295 328 323 319 321 313 309 307 295 295 295 292 298 297 297 296 292 290 287 283 283 284 284 284 284 286 290 290 288 289 293 295 296 297 298 298 300 301 302 301 299 298 296 295 293 292 293 291 288 286 285 282 277 274 273 271 266 260 258 253 245 235 231 230 229 228 223 219 216 210
130 129 132 102 116 105 119 66 67 69 49 326 310 298 291 312 311 320 323 319 317 303 293 296 300 300 300 298 295 295 292 289 286 283 281 283 281 283 285 286 287 286 285 287 285 281 278 283 291 296 299 301 302 301 300 298 296 294 294 293 291 289 290 291 289 285 283 283 280 276 273 269 262 257 257 249 243 236 231 230 229 227 222 220 217
139 132 135 146 116 102 78 96 86 102 198 253 275 281 314 300 295 296 343 315 314 302 302 300 299 296 300 299 297 296 290 284 279 279 284 281 282 281 281 279 278 278 278 279 282 280 280 281 285 291 294 294 296 297 297 297 296 296 295 294 292 291 289 287 288 288 285 281 281 280 277 273 269 263 251 250 246 241 239 233 231 230 228 224 222
152 159 142 120 122 136 169 156 152 133 132 260 266 283 284 286 307 337 345 314 303 307 305 302 299 299 299 299 297 291 286 284 278 278 277 279 278 278 272 275 275 272 274 273 274 273 276 277 279 282 284 286 291 297 298 298 297 296 297 296 295 294 293 291 287 284 286 285 280 278 277 275 272 267 260 253 249 242 238 239 238 235 231 228 223
155 152 159 160 165 161 148 179 149 147 109 301 302 310 310 351 1 327 318 299 296 294 289 295 300 304 303 299 295 286 280 273 275 273 270 269 272 269 274 270 267 268 265 267 263 265 269 269 274 279 279 282 287 293 296 296 298 298 298 297 293 291 290 288 286 285 282 282 283 279 274 272 270 268 265 256 249 243 237 237 238 239 235 227 225
159 164 157 153 158 173 163 125 125 157 209 306 325 340 343 348 338 332 316 304 290 284 288 299 300 300 297 291 285 290 283 278 274 267 264 260 261 264 269 267 266 266 265 267 267 274 278 285 288 287 288 285 283 286 289 294 295 295 295 295 294 292 291 289 287 283 281 281 279 280 278 273 272 268 264 260 253 250 240 235 236 237 235 229 220
162 156 163 169 164 173 157 167 163 171 205 230 237 334 5 354 316 305 300 302 301 299 302 315 311 298 272 287 292 277 274 275 272 273 268 265 262 267 262 268 267 271 273 269 275 288 297 299 298 298 294 292 285 284 288 291 291 293 295 296 296 295 293 292 290 289 285 281 280 277 278 278 272 271 267 261 253 248 247 238 233 234 234 230 214
164 161 169 163 170 168 164 167 145 161 198 223 320 308 300 285 266 291 253 290 294 310 306 329 311 325 325 319 303 283 272 261 257 255 263 276 283 284 272 274 282 287 283 288 303 301 300 295 291 291 291 291 292 293 294 292 292 293 295 294 294 294 294 292 290 287 287 288 287 283 276 272 274 270 270 266 260 250 244 246 236 228 230 227 222
164 163 164 166 166 157 164 155 158 170 227 306 272 294 270 274 269 265 299 277 279 286 282 301 291 315 292 292 311 329 279 270 313 51 325 295 285 276 275 276 278 279 283 300 296 291 286 285 287 288 288 287 288 293 297 294 289 290 289 289 289 290 289 288 287 285 285 284 281 277 277 275 272 272 268 267 264 259 245 243 245 237 228 223 218
164 161 159 158 160 164 160 152 173 156 182 232 259 258 272 282 269 259 262 300 296 288 296 314 298 325 327 352 303 314 317 164 325 290 256 278 269 264 265 270 282 289 295 288 284 283 282 283 285 283 284 286 290 291 289 286 282 280 279 280 279 284 287 286 286 284 283 280 276 270 270 273 276 275 273 269 266 263 257 243 241 246 240 228 223
164 163 161 165 168 166 161 164 158 178 175 206 230 232 236 235 243 274 268 254 283 280 296 296 277 236 232 325 322 284 246 313 330 305 179 59 253 274 271 279 277 272 275 272 276 278 282 281 279 281 282 285 286 285 284 283 283 280 278 277 278 281 281 283 284 284 282 278 275 275 276 277 276 273 272 272 269 265 261 254 243 240 240 239 216
163 164 163 162 169 168 164 157 162 181 188 209 220 233 242 242 242 233 253 250 266 283 280 274 256 244 230 204 211 258 312 318 22 310 290 220 266 211 249 255 256 278 268 279 278 276 278 281 280 281 283 283 283 282 281 280 280 282 280 279 279 282 283 283 282 280 279 278 277 273 269 271 276 276 274 273 271 266 262 259 251 240 239 238 233
167 164 166 168 166 168 164 164 176 181 197 202 223 223 229 235 242 239 241 258 263 272 271 275 283 263 244 236 242 260 274 313 304 316 316 316 185 250 265 235 261 260 271 260 265 279 280 278 282 280 280 279 278 281 282 281 280 279 279 280 284 286 286 283 281 279 277 274 272 271 271 272 271 267 266 264 264 264 262 259 253 245 237 232 230
165 168 168 168 166 168 163 167 174 193 195 210 214 220 220 236 228 228 239 240 249 257 271 262 259 267 248 267 267 262 247 249 247 260 294 307 308 284 210 212 257 259 244 271 278 273 279 283 280 282 284 282 282 284 283 281 282 285 288 287 288 288 286 283 282 280 278 275 273 270 270 269 266 264 262 264 261 260 260 257 255 250 243 235 236
167 168 172 168 167 169 169 170 178 197 198 211 218 216 222 231 247 256 249 250 236 249 258 261 253 260 274 273 270 256 264 249 262 267 265 299 291 300 308 300 240 222 264 258 241 270 287 286 286 287 285 286 287 282 283 288 289 289 287 287 288 287 286 285 284 282 279 276 273 272 271 268 264 262 263 264 265 264 260 256 255 251 244 235 234
170 169 169 171 167 167 169 173 184 194 199 207 217 227 233 233 232 234 244 252 250 253 254 261 252 255 244 254 253 275 283 276 256 249 265 239 266 297 306 313 315 304 192 268 293 285 283 287 289 286 285 286 285 285 285 286 286 288 288 290 289 287 286 285 282 279 277 276 274 271 270 268 264 263 261 263 263 264 265 263 256 256 251 238 230
165 173 170 168 170 169 169 177 183 193 201 208 220 218 221 227 235 240 242 244 250 250 257 258 253 251 251 240 241 235 238 251 256 243 248 267 285 280 288 294 298 302 301 301 282 284 283 283 280 280 282 279 282 284 284 287 289 288 290 291 289 288 286 284 282 278 275 273 273 271 268 267 264 262 261 258 258 258 260 263 264 258 254 249 233
167 168 176 170 170 173 172 177 188 191 204 209 215 214 218 218 226 228 245 251 250 249 249 253 251 252 249 239 243 241 244 247 253 247 244 257 263 277 285 299 295 281 289 305 298 292 280 273 277 275 276 284 284 289 293 294 292 291 289 287 286 285 282 279 278 278 276 274 272 271 269 266 264 261 259 258 256 258 261 259 262 266 263 256 241
173 167 173 171 168 172 176 185 193 199 206 211 217 212 207 213 226 241 245 247 245 249 251 250 245 246 247 241 246 243 249 249 251 254 252 261 261 272 276 282 282 293 297 305 298 303 288 279 269 269 279 278 284 293 295 292 289 290 291 288 285 283 281 280 279 278 276 274 271 267 266 265 262 260 257 256 254 254 258 259 258 261 265 265 249
168 174 169 166 170 172 176 183 187 196 200 203 208 209 206 220 233 244 249 251 252 250 250 251 250 251 247 258 249 252 257 252 255 251 256 261 260 261 281 280 274 282 289 296 293 301 289 252 255 281 279 288 290 289 289 287 285 285 283 281 281 281 281 281 280 278 276 273 270 268 265 259 258 258 257 255 254 253 252 261 256 258 260 262 263
168 165 162 167 167 168 175 178 187 199 209 219 219 214 214 225 235 244 252 249 250 251 251 251 256 252 250 246 256 253 252 253 250 253 252 249 255 264 268 283 285 277 284 281 288 278 281 293 284 273 286 287 283 287 282 278 280 282 283 283 281 278 278 278 279 278 277 276 275 270 263 262 258 255 254 253 255 256 256 259 262 257 258 260 260
155 151 155 154 160 164 168 179 185 199 208 209 213 211 214 226 245 247 255 248 251 247 250 249 253 253 255 255 257 257 254 255 251 256 253 250 254 257 256 261 275 289 289 291 285 278 282 288 291 264 249 281 283 280 290 292 291 291 292 289 288 287 285 283 280 278 276 274 269 272 269 262 261 257 254 253 253 253 257 258 265 263 262 263 267
152 150 149 151 156 159 174 186 195 200 206 208 205 207 211 227 237 242 250 248 248 252 252 250 251 256 256 255 255 260 257 256 256 256 254 254 251 250 245 252 260 269 283 287 283 290 290 286 284 294 273 277 290 286 280 282 284 286 287 287 287 288 289 290 289 291 293 290 287 278 269 265 261 259 256 254 252 252 253 256 259 263 258 257 259
148 147 146 153 157 169 176 190 196 201 205 207 204 211 215 230 233 241 245 245 251 252 250 251 256 255 256 259 255 262 260 260 262 258 257 258 259 255 255 256 253 258 264 272 279 279 287 292 275 284 301 280 284 290 282 278 284 287 288 288 286 284 285 286 287 288 288 286 284 284 285 277 266 257 255 253 253 252 252 254 256 260 259 255 255
146 147 154 159 164 177 178 196 202 209 208 209 206 212 216 228 235 245 246 243 246 252 247 247 256 252 261 262 261 264 265 269 269 264 261 259 257 257 256 255 250 248 259 263 274 272 272 286 287 285 293 297 288 288 287 279 278 279 282 281 281 282 284 283 282 283 282 278 278 280 281 278 271 262 254 255 257 256 254 254 255 255 257 253 252
154 152 159 163 169 182 190 195 205 202 205 208 202 212 219 229 236 245 248 243 251 254 257 250 260 260 264 267 267 269 274 275 267 265 264 261 260 257 256 257 261 258 257 261 259 269 271 273 283 288 288 290 289 284 282 282 277 275 277 278 279 281 282 279 279 277 277 277 276 272 273 276 274 270 258 252 253 256 256 259 259 258 259 253 248
154 157 163 169 176 182 187 194 195 201 203 213 206 213 224 237 240 244 248 248 254 256 260 262 258 263 263 266 269 269 272 269 267 266 263 262 263 265 264 260 263 258 256 259 262 268 274 267 275 281 290 288 283 278 280 282 281 278 274 276 280 281 280 278 277 273 274 275 274 272 271 270 271 264 259 256 252 254 257 258 259 259 257 255 249
154 160 167 169 175 181 188 199 199 201 210 212 224 223 237 242 247 242 248 250 252 258 259 264 264 261 265 269 270 271 267 265 267 266 266 266 263 263 261 263 263 263 255 261 263 265 272 274 273 276 282 279 279 277 276 281 280 281 280 279 280 278 279 280 279 278 275 273 273 271 268 270 269 269 262 257 257 254 256 256 256 256 256 251 249
157 163 166 168 177 179 185 190 192 203 212 223 222 225 234 240 246 247 249 250 254 260 262 264 268 268 269 268 270 272 271 268 266 266 268 269 271 267 267 262 265 265 264 255 263 264 269 273 272 279 278 280 272 282 274 275 279 280 282 280 280 281 278 278 276 276 276 275 274 271 265 263 266 263 262 261 260 258 255 257 256 255 252 248 245
156 161 161 166 162 173 180 187 194 205 214 222 223 226 235 239 244 250 250 251 254 256 258 263 265 265 265 269 267 265 266 270 272 271 267 266 267 269 268 264 262 264 263 261 259 265 266 273 271 273 276 277 276 272 276 275 277 279 276 282 277 275 274 271 271 271 275 276 275 273 271 271 266 266 266 261 257 256 258 256 255 253 251 247 243
157 152 159 157 167 173 185 190 204 212 217 220 226 230 237 236 240 246 247 248 251 252 254 258 260 260 262 263 270 271 273 272 274 272 270 266 264 266 263 261 265 262 263 257 259 258 262 263 271 267 268 271 271 274 269 275 276 273 277 276 281 278 276 270 269 269 269 272 273 274 274 274 272 269 267 266 264 263 258 255 254 251 248 244 242
153 158 162 166 169 180 181 197 205 215 214 215 223 232 237 240 242 245 246 248 248 251 254 257 260 262 268 269 269 267 266 267 270 272 274 270 262 263 270 266 260 264 261 256 260 253 259 260 259 273 266 267 275 264 269 269 274 278 279 277 277 278 284 285 275 265 262 259 264 265 262 263 262 263 262 260 256 255 256 253 252 250 246 242 240
160 161 162 158 167 174 190 194 209 212 219 222 228 236 239 240 240 242 245 246 250 253 256 258 259 259 259 260 260 262 261 261 262 261 260 271 267 255 257 268 261 257 264 257 262 258 258 263 265 262 271 265 262 274 263 262 268 268 279 285 282 277 273 275 282 278 270 263 255 254 257 261 265 267 266 263 259 254 254 256 254 248 243 239 239
157 159 162 166 170 175 189 196 205 214 221 228 232 235 238 237 238 239 240 247 254 257 257 256 256 259 261 261 263 258 257 257 256 256 257 264 266 262 261 254 258 256 256 260 260 260 256 258 259 266 259 270 261 263 271 268 271 263 260 275 282 289 289 278 273 284 282 266 265 267 261 263 262 262 263 263 262 260 257 255 251 245 238 236 236
151 154 155 159 169 179 186 198 204 214 217 230 229 232 233 237 232 240 247 255 255 258 263 265 267 264 261 262 258 260 259 262 265 270 270 270 268 262 263 254 251 254 257 254 256 254 254 256 260 259 262 260 263 262 267 261 260 268 272 269 276 279 283 285 279 267 269 280 284 276 266 253 258 255 250 250 252 256 256 252 246 240 235 233 233
132 123 151 157 165 178 186 208 216 221 228 225 232 238 239 224 221 231 241 249 262 268 271 272 268 266 266 262 263 267 274 279 282 284 285 284 283 282 284 279 264 261 259 260 258 255 256 258 259 261 258 258 254 258 256 262 264 266 270 270 274 279 278 278 281 274 270 268 270 270 261 254 254 261 264 271 271 267 271 258 241 232 228 228 230
132 142 139 156 169 182 199 210 218 223 225 223 236 246 248 252 252 251 264 267 267 268 269 269 275 278 279 276 275 278 279 279 280 282 284 285 285 284 283 280 279 278 279 276 273 267 258 256 261 259 257 262 257 251 257 261 260 262 264 268 269 274 274 277 283 289 270 268 267 257 257 254 253 268 269 267 267 270 269 264 251 230 224 224 227
149 147 155 173 181 193 202 211 219 225 226 236 244 250 256 260 264 264 265 268 269 272 274 277 281 284 284 281 277 275 271 276 282 283 283 284 284 284 284 284 281 279 276 274 276 276 273 275 269 261 252 256 259 253 258 254 256 256 255 260 264 264 268 267 268 274 288 301 292 294 279 270 277 279 280 274 271 268 268 270 268 240 221 221 223
148 162 171 177 186 192 201 209 220 225 233 244 252 259 265 267 270 273 271 272 276 276 281 284 284 284 285 288 287 280 285 286 286 281 280 279 279 284 284 283 282 279 278 276 274 273 278 278 277 277 266 265 260 252 245 254 253 259 258 260 255 260 258 263 263 263 269 283 294 292 288 282 285 281 278 275 272 268 269 267 270 259 227 219 220
162 164 171 178 183 192 200 207 219 233 238 246 258 265 269 273 277 281 276 280 283 286 286 287 285 284 285 285 288 288 287 284 282 284 282 279 282 278 275 270 267 269 272 274 274 273 271 268 271 272 272 269 272 276 269 260 261 260 264 263 261 258 262 261 267 272 277 280 277 283 280 272 268 270 267 269 268 270 268 268 270 269 242 222 219
160 164 170 175 187 185 195 204 212 242 247 254 262 268 274 280 283 287 286 292 289 285 285 283 286 286 286 287 288 286 287 287 286 288 290 292 290 288 285 281 272 262 262 256 263 260 258 257 258 261 266 263 261 262 259 251 249 255 252 257 261 262 264 267 266 264 270 270 266 261 263 277 259 261 261 267 272 271 269 271 269 267 257 231 222
145 151 163 169 181 180 177 185 222 245 251 258 267 272 280 285 289 291 290 285 286 288 288 288 286 288 286 288 287 288 288 289 290 295 298 298 293 289 285 282 283 281 274 275 274 276 273 268 261 259 260 259 259 258 256 251 250 250 251 254 258 258 261 264 264 266 260 258 243 241 259 269 249 254 268 269 270 274 273 269 265 263 257 236 223
155 161 165 171 171 174 189 198 215 240 253 264 270 276 282 288 292 275 271 275 285 289 291 292 292 289 290 290 292 292 293 291 295 299 299 301 298 296 292 288 281 277 274 272 271 272 274 274 272 271 270 269 268 264 264 262 257 252 248 250 249 247 253 255 258 257 258 258 240 222 247 262 246 262 278 277 274 274 275 270 264 263 255 237 223
156 162 155 152 170 180 193 198 209 235 251 261 269 279 286 287 292 288 284 277 277 289 292 292 291 292 291 295 296 295 295 295 297 300 303 305 297 291 285 280 279 275 275 274 272 273 270 271 271 271 271 272 273 275 275 271 265 259 250 256 261 259 253 249 254 257 264 255 249 199 252 259 289 273 273 277 277 257 256 259 258 251 248 234 221
139 145 143 160 170 185 197 196 226 239 247 259 275 286 287 289 295 287 283 283 283 287 294 292 295 295 295 296 296 295 296 297 301 303 304 303 294 290 293 293 291 292 293 294 292 286 280 272 265 263 263 263 264 264 266 269 269 268 260 257 261 258 259 259 258 262 265 255 248 200 252 269 254 255 241 280 288 286 255 262 257 249 239 227 217